TimeEST,TemperatureF,Dew PointF,Humidity,Sea Level PressureIn,VisibilityMPH,Wind Direction,Wind SpeedMPH,Gust SpeedMPH,PrecipitationIn,Events,Conditions,WindDirDegrees,DateUTC
12:54 AM,18.0,9.0,68,30.27,10.0,SSE,10.4,-,N/A,,Clear,160,2014-01-04 05:54:00
1:54 AM,19.0,9.0,65,30.26,10.0,South,10.4,-,N/A,,Clear,180,2014-01-04 06:54:00
2:54 AM,19.0,9.0,65,30.27,10.0,South,10.4,-,N/A,,Clear,170,2014-01-04 07:54:00
3:54 AM,19.0,10.0,68,30.26,10.0,South,10.4,-,N/A,,Clear,170,2014-01-04 08:54:00
4:54 AM,18.0,10.0,71,30.26,10.0,South,8.1,-,N/A,,Clear,170,2014-01-04 09:54:00
5:54 AM,19.0,10.0,68,30.26,10.0,SSE,10.4,-,N/A,,Clear,160,2014-01-04 10:54:00
6:54 AM,19.0,10.9,71,30.27,10.0,South,10.4,-,N/A,,Clear,170,2014-01-04 11:54:00
7:54 AM,19.0,10.9,71,30.26,10.0,South,9.2,-,N/A,,Clear,170,2014-01-04 12:54:00
8:54 AM,23.0,12.9,65,30.26,10.0,South,10.4,-,N/A,,Clear,180,2014-01-04 13:54:00
9:54 AM,28.0,16.0,61,30.25,10.0,South,12.7,-,N/A,,Clear,180,2014-01-04 14:54:00
10:54 AM,32.0,18.0,56,30.24,10.0,South,11.5,-,N/A,,Clear,190,2014-01-04 15:54:00
11:54 AM,36.0,19.0,50,30.20,10.0,SSW,15.0,23.0,N/A,,Clear,200,2014-01-04 16:54:00
12:54 PM,39.0,18.0,43,30.17,10.0,SSW,20.7,29.9,N/A,,Clear,210,2014-01-04 17:54:00
1:54 PM,41.0,17.1,38,30.14,10.0,SSW,19.6,-,N/A,,Clear,200,2014-01-04 18:54:00
2:54 PM,43.0,17.1,35,30.13,10.0,SSW,16.1,-,N/A,,Clear,210,2014-01-04 19:54:00
3:54 PM,43.0,18.0,37,30.12,10.0,South,13.8,-,N/A,,Clear,190,2014-01-04 20:54:00
4:54 PM,42.1,19.0,40,30.11,10.0,South,9.2,-,N/A,,Clear,180,2014-01-04 21:54:00
5:54 PM,37.9,18.0,45,30.11,10.0,South,6.9,-,N/A,,Clear,180,2014-01-04 22:54:00
6:54 PM,36.0,18.0,48,30.11,10.0,South,8.1,-,N/A,,Clear,170,2014-01-04 23:54:00
7:54 PM,36.0,18.0,48,30.11,10.0,SSE,10.4,-,N/A,,Clear,160,2014-01-05 00:54:00
8:54 PM,35.1,21.0,57,30.12,10.0,South,11.5,-,N/A,,Clear,170,2014-01-05 01:54:00
9:54 PM,34.0,21.9,61,30.12,10.0,South,8.1,-,N/A,,Clear,170,2014-01-05 02:54:00
10:54 PM,34.0,23.0,64,30.10,10.0,SSE,9.2,-,N/A,,Partly Cloudy,160,2014-01-05 03:54:00
11:54 PM,36.0,26.1,67,30.09,10.0,South,10.4,-,N/A,,Overcast,170,2014-01-05 04:54:00